N750GF KASE-KMDW

Flight info

Callsign N750GF
Flight time N/A
Altitude 45000
Route LINDZ9 LINDZ SXW JESIE RLG LNK BVEEE JALAP ENDEE6
Aircraft C750/M-SBDE3FGHRWXY/S

Departure

Time 2026-03-24 00:43
Airport Aspen-Pitkin County Airport (Sardy Field) (KASE)

Arrival

Time N/A
Airport Chicago Midway International Airport (KMDW)
Time Latitude Longitude Altitude Speed Heading
2026-03-24 00:28 39.22149 -106.86647 7764 ft 0 kts 71°
2026-03-24 00:39 39.22136 -106.86616 7764 ft 6 kts 145°
2026-03-24 00:39 39.22089 -106.86593 7771 ft 8 kts 159°
2026-03-24 00:39 39.22026 -106.86622 7770 ft 13 kts 184°
2026-03-24 00:40 39.21927 -106.86579 7781 ft 14 kts 159°
2026-03-24 00:40 39.21848 -106.86542 7787 ft 14 kts 160°
2026-03-24 00:40 39.21736 -106.86488 7801 ft 19 kts 160°
2026-03-24 00:40 39.21640 -106.86443 7810 ft 12 kts 160°
2026-03-24 00:41 39.21567 -106.86408 7815 ft 11 kts 159°
2026-03-24 00:41 39.21477 -106.86364 7820 ft 18 kts 159°
2026-03-24 00:41 39.21345 -106.86302 7831 ft 21 kts 159°
2026-03-24 00:41 39.21234 -106.86251 7833 ft 10 kts 172°
2026-03-24 00:42 39.21189 -106.86271 7838 ft 6 kts 221°
2026-03-24 00:42 39.21168 -106.86329 7838 ft 6 kts 274°
2026-03-24 00:42 39.21194 -106.86350 7833 ft 3 kts 340°
2026-03-24 00:42 39.21225 -106.86364 7835 ft 12 kts 340°
2026-03-24 00:43 39.21566 -106.86526 7812 ft 102 kts 340°
2026-03-24 00:43 39.22463 -106.86955 7782 ft 160 kts 335°
2026-03-24 00:43 39.23488 -106.87405 8600 ft 155 kts 337°
2026-03-24 00:43 39.24545 -106.87862 8970 ft 164 kts 338°
2026-03-24 00:44 39.25664 -106.88347 9304 ft 175 kts 330°
2026-03-24 00:44 39.26462 -106.89543 9490 ft 187 kts 285°
2026-03-24 00:44 39.26763 -106.91121 10290 ft 175 kts 285°
2026-03-24 00:44 39.27093 -106.92630 11037 ft 175 kts 284°
2026-03-24 00:45 39.27376 -106.94236 11414 ft 195 kts 281°
2026-03-24 00:45 39.27656 -106.96059 11668 ft 220 kts 281°
2026-03-24 00:45 39.27975 -106.98102 11816 ft 245 kts 281°
2026-03-24 00:45 39.28406 -107.00343 11885 ft 272 kts 291°
2026-03-24 00:46 39.29543 -107.02463 11914 ft 302 kts 308°
2026-03-24 00:46 39.31016 -107.04550 11956 ft 326 kts 310°
2026-03-24 00:46 39.32601 -107.06759 12052 ft 344 kts 309°
2026-03-24 00:46 39.34204 -107.09071 12621 ft 344 kts 308°
2026-03-24 00:47 39.36011 -107.11135 13125 ft 354 kts 323°
2026-03-24 00:47 39.38261 -107.12478 13709 ft 362 kts 339°
2026-03-24 00:47 39.40777 -107.12955 14231 ft 371 kts 355°
2026-03-24 00:47 39.43356 -107.12465 14695 ft 383 kts 12°
2026-03-24 00:48 39.45810 -107.11039 15225 ft 389 kts 23°
2026-03-24 00:48 39.48201 -107.09371 15767 ft 392 kts 24°
2026-03-24 00:48 39.50604 -107.07670 16261 ft 395 kts 23°
2026-03-24 00:48 39.53034 -107.05990 16808 ft 397 kts 22°
2026-03-24 00:49 39.55483 -107.04316 17322 ft 399 kts 22°
2026-03-24 00:49 39.57935 -107.02616 17868 ft 402 kts 22°
2026-03-24 00:49 39.60406 -107.00879 18382 ft 405 kts 22°
2026-03-24 00:49 39.62934 -106.99301 18855 ft 401 kts 15°
2026-03-24 00:50 39.65594 -106.98330 19401 ft 396 kts
2026-03-24 00:50 39.68282 -106.97567 19895 ft 396 kts
2026-03-24 00:50 39.70976 -106.96779 20425 ft 398 kts
2026-03-24 00:50 39.73683 -106.95974 20932 ft 401 kts
2026-03-24 00:51 39.76410 -106.95171 21465 ft 403 kts
2026-03-24 00:51 39.79157 -106.94356 21993 ft 406 kts
2026-03-24 00:51 39.81916 -106.93556 22538 ft 407 kts
2026-03-24 00:51 39.84693 -106.92760 23053 ft 411 kts
2026-03-24 00:52 39.87439 -106.91776 23486 ft 421 kts 11°
2026-03-24 00:52 39.90151 -106.90231 23997 ft 429 kts 20°
2026-03-24 00:52 39.92714 -106.88166 24440 ft 439 kts 28°
2026-03-24 00:52 39.95069 -106.85576 24840 ft 449 kts 37°
2026-03-24 00:53 39.97150 -106.82481 25247 ft 459 kts 46°
2026-03-24 00:53 39.98880 -106.78932 25663 ft 469 kts 55°
2026-03-24 00:53 40.00190 -106.74984 26079 ft 479 kts 65°
2026-03-24 00:53 40.01016 -106.70731 26485 ft 489 kts 75°
2026-03-24 00:54 40.01306 -106.66281 26875 ft 498 kts 86°
2026-03-24 00:54 40.01133 -106.61749 27274 ft 501 kts 90°
2026-03-24 00:54 40.00903 -106.57199 27635 ft 504 kts 90°
2026-03-24 00:54 40.00678 -106.52627 28005 ft 506 kts 90°
2026-03-24 00:55 40.00457 -106.48030 28346 ft 509 kts 90°
2026-03-24 00:55 40.00487 -106.43430 28641 ft 506 kts 80°
2026-03-24 00:55 40.00999 -106.38912 29034 ft 502 kts 74°
2026-03-24 00:55 40.01630 -106.34416 29390 ft 505 kts 74°
2026-03-24 00:56 40.02247 -106.29896 29703 ft 508 kts 75°
2026-03-24 00:56 40.02862 -106.25342 30036 ft 511 kts 75°
2026-03-24 00:56 40.03487 -106.20767 30328 ft 513 kts 75°
2026-03-24 00:56 40.04119 -106.16177 30620 ft 515 kts 75°
2026-03-24 00:57 40.04745 -106.11562 30905 ft 517 kts 75°
2026-03-24 00:57 40.05366 -106.06943 31224 ft 517 kts 74°
2026-03-24 00:57 40.05986 -106.02332 31590 ft 514 kts 73°
2026-03-24 00:58 40.07224 -105.93151 32204 ft 512 kts 74°
2026-03-24 00:58 40.07832 -105.88583 32715 ft 511 kts 74°
2026-03-24 00:58 40.08440 -105.84007 33028 ft 510 kts 73°
2026-03-24 00:58 40.09046 -105.79450 33357 ft 509 kts 73°
2026-03-24 00:59 40.09649 -105.74905 33669 ft 508 kts 73°
2026-03-24 00:59 40.10248 -105.70358 34032 ft 507 kts 73°
2026-03-24 00:59 40.10843 -105.65824 34358 ft 506 kts 73°
2026-03-24 00:59 40.11439 -105.61290 34642 ft 507 kts 75°
2026-03-24 01:00 40.12038 -105.56731 34797 ft 512 kts 75°
2026-03-24 01:00 40.12635 -105.52143 35105 ft 511 kts 74°
2026-03-24 01:00 40.13224 -105.47579 35545 ft 509 kts 74°
2026-03-24 01:00 40.13815 -105.43021 36000 ft 508 kts 73°
2026-03-24 01:01 40.14405 -105.38469 36429 ft 507 kts 73°
2026-03-24 01:01 40.14989 -105.33928 36879 ft 506 kts 72°
2026-03-24 01:01 40.15569 -105.29391 37353 ft 505 kts 72°
2026-03-24 01:01 40.16149 -105.24857 37662 ft 509 kts 72°
2026-03-24 01:02 40.16738 -105.20275 37910 ft 512 kts 72°
2026-03-24 01:02 40.17317 -105.15687 38372 ft 510 kts 72°
2026-03-24 01:02 40.17892 -105.11118 38811 ft 509 kts 72°
2026-03-24 01:02 40.18469 -105.06553 39143 ft 508 kts 72°
2026-03-24 01:03 40.19046 -105.01995 39456 ft 508 kts 72°
2026-03-24 01:03 40.19616 -104.97442 39660 ft 507 kts 72°
2026-03-24 01:03 40.20182 -104.92893 40033 ft 506 kts 72°
2026-03-24 01:03 40.20747 -104.88354 40423 ft 506 kts 72°
2026-03-24 01:04 40.21312 -104.83813 40784 ft 505 kts 72°
2026-03-24 01:04 40.21873 -104.79280 41147 ft 504 kts 72°
2026-03-24 01:04 40.22431 -104.74754 41513 ft 504 kts 72°
2026-03-24 01:04 40.22986 -104.70232 41866 ft 504 kts 72°
2026-03-24 01:05 40.23540 -104.65710 42213 ft 503 kts 72°
2026-03-24 01:05 40.24092 -104.61189 42572 ft 503 kts 72°
2026-03-24 01:05 40.24641 -104.56676 42907 ft 502 kts 72°
2026-03-24 01:05 40.25188 -104.52163 43243 ft 502 kts 72°
2026-03-24 01:06 40.25734 -104.47647 43570 ft 502 kts 72°
2026-03-24 01:06 40.26276 -104.43140 43898 ft 501 kts 72°
2026-03-24 01:06 40.26809 -104.38692 44221 ft 501 kts 72°
2026-03-24 01:06 40.27347 -104.34195 44522 ft 500 kts 72°
2026-03-24 01:07 40.27893 -104.29632 44806 ft 500 kts 72°
2026-03-24 01:07 40.28418 -104.25203 44995 ft 500 kts 72°
2026-03-24 01:07 40.28957 -104.20681 44964 ft 506 kts 72°
2026-03-24 01:08 40.30042 -104.11465 44976 ft 518 kts 73°
2026-03-24 01:08 40.31143 -104.02047 45034 ft 528 kts 73°
2026-03-24 01:09 40.32254 -103.92467 45062 ft 533 kts 73°
2026-03-24 01:09 40.33358 -103.82872 45058 ft 534 kts 73°
2026-03-24 01:10 40.33546 -103.81246 45052 ft 533 kts 73°
2026-03-24 01:10 40.35542 -103.63710 45044 ft 533 kts 73°
2026-03-24 01:11 40.36625 -103.54092 45031 ft 533 kts 74°
2026-03-24 01:11 40.37702 -103.44460 45016 ft 534 kts 74°
2026-03-24 01:12 40.38766 -103.34855 45026 ft 533 kts 74°
2026-03-24 01:12 40.39827 -103.25225 45015 ft 533 kts 74°
2026-03-24 01:13 40.40877 -103.15593 45021 ft 533 kts 74°
2026-03-24 01:13 40.41912 -103.06038 45007 ft 531 kts 74°
2026-03-24 01:14 40.42952 -102.96369 45016 ft 532 kts 74°
2026-03-24 01:14 40.43632 -102.90005 45023 ft 532 kts 74°
2026-03-24 01:15 40.44994 -102.77135 45025 ft 532 kts 74°
2026-03-24 01:15 40.45915 -102.68355 45033 ft 533 kts 75°